Weather Roundup
Issued by NWS

Home | Current Version | Previous Version | Text Only | Print | Product List | Glossary On
Versions: 1 2 3 4 5 6 7 8 9 10 11 12 13 14 15 16 17 18 19 20 21 22 23 24 25 26 27 28 29 30 31 32 33 34 35 36 37 38 39 40 41 42 43 44 45 46 47 48 49 50
848
NZUS93 KARX 221610
HRRWXR

CURRENT HOURLY OBSERVATIONS ACROSS
MUCH OF THE UPPER MISSISSIPPI VALLEY
NATIONAL WEATHER SERVICE LA CROSSE WI
1000 AM CST SUN JAN 22 2017


...SOUTHEAST MINNESOTA...


CITY           SKY/WX    TMP DP  RH WIND       PRES   REMARKS
ROCHESTER      FOG       33  33 100 NW8       29.68R VSB 1/4 WCI  26
ROCHESTER/MAYO CLOUDY    35  35 100 NW7       29.69R WCI  29
WINONA         CLOUDY    36  36 100 CALM      29.69R FOG
AUSTIN         FOG       34  34 100 NW3       29.68R VSB 1/4
ALBERT LEA     CLOUDY    36  36 100 NW5       29.69R FOG     WCI  32
DODGE CENTER   FOG       34  34 100 CALM      29.68R VSB 1/4
PRESTON        FOG       33  32  98 NW5       29.68R VSB<1/4 WCI  28
OWATONNA       FOG       36  34  93 NW3       29.69S VSB 3/4
FARIBAULT      NOT AVBL
$$

...ELSEWHERE IN MINNESOTA...


CITY           SKY/WX    TMP DP  RH WIND       PRES   REMARKS
MINNEAPOLIS    CLOUDY    37  34  89 NW6       29.71R WCI  32
INTNL FALLS    FOG       34  33  96 N3        29.68R VSB 1/4
DULUTH         CLOUDY    35  34  96 NW6       29.65R FOG     WCI  30
RED WING       FOG       36  34  93 W6        29.70R VSB 1/4 WCI  31
REDWOOD FALLS  CLOUDY    35  33  92 NW10      29.74R FOG     WCI  27
MANKATO        FOG       34  34 100 W7        29.72R VSB 1   WCI  28
WORTHINGTON    LGT RAIN  34  34 100 NW12      29.74R VSB 1   WCI  25
FAIRMONT       CLOUDY    35  34  96 NW10      29.72R FOG     WCI  27
$$

...SOUTHWEST WISCONSIN...


CITY           SKY/WX    TMP DP  RH WIND       PRES   REMARKS
LA CROSSE      FOG       39  35  86 CALM      29.67S VSB 1/4
PRAIRIE DU CHI CLOUDY    35  34  96 CALM      29.68R FOG
BOSCOBEL       CLOUDY    38  36  92 CALM      29.67S FOG
LONE ROCK      CLOUDY    38  36  92 W5        29.67R FOG     WCI  34
PLATTEVILLE    CLOUDY    37  37 100 N7        29.66R WCI  32
FORT MC COY    FOG       35  35 100 W3        29.67S VSB 1/4
CAMP DOUGLAS   FOG       37  37 100 W5        29.65R VSB 3/4 WCI  34
MAUSTON-NEW LI CLOUDY    37  37 100 CALM      29.65R FOG
VIROQUA        CLOUDY    35  35 100 W3        29.65R VSB<1/4
WIS DELLS      CLOUDY    37  37  99 CALM      29.64R FOG
$$

...ELSEWHERE IN WISCONSIN...


CITY           SKY/WX    TMP DP  RH WIND       PRES   REMARKS
MILWAUKEE      CLOUDY    43  39  86 NW6       29.66R FOG
MADISON        CLOUDY    38  37  97 S3        29.67R FOG
GREEN BAY      FOG       38  38 100 SW6       29.65R VSB 1/2 WCI  33
EAU CLAIRE     CLOUDY    35  34  96 NW6       29.66R WCI  30
BLACK RVR FLS  CLOUDY    36  36 100 W3        29.66R FOG
MEDFORD        FOG       33  33  99 NW3       29.63R VSB 1/4
WAUSAU         CLOUDY    34  34 100 W5        29.62R FOG     WCI  30
WIS RAPIDS     CLOUDY    36  36 100 NW3       29.65R
MARSHFIELD     FOG       34  32  92 W5        29.63R VSB 1/2 WCI  30
RICE LAKE      CLOUDY    35  35  99 NW3       29.68R
$$

...NORTHEAST IOWA...


CITY           SKY/WX    TMP DP  RH WIND       PRES   REMARKS
WATERLOO       CLOUDY    33  31  92 N8        29.69R WCI  26
DUBUQUE        CLOUDY    35  34  96 CALM      29.67R FOG
DECORAH        CLOUDY    34  34 100 CALM      29.66R FOG
MASON CITY     FOG       33  33 100 NW9       29.71R VSB 1   WCI  25
CHARLES CITY   CLOUDY    34  34 100 NW7       29.69R FOG     WCI  28
OELWEIN        CLOUDY    32  32 100 NW7       29.69R FOG     WCI  26
$$

...ELSEWHERE IN IOWA...


CITY           SKY/WX    TMP DP  RH WIND       PRES   REMARKS
DES MOINES     CLOUDY    35  33  92 NW9       29.72R FOG     WCI  28
IOWA CITY      CLOUDY    36  34  92 NW8       29.71R FOG     WCI  30
FORT DODGE     CLOUDY    34  30  86 NW3       29.73R
MARSHALLTOWN   CLOUDY    33  33 100 NW8       29.69R FOG     WCI  26
CEDAR RAPIDS   CLOUDY    32  32 100 NW10      29.68R FOG     WCI  24
$$

...NORTHERN ILLINOIS...


CITY           SKY/WX    TMP DP  RH WIND       PRES   REMARKS
CHICAGO-OHARE  CLOUDY    42  39  89 N6        29.64R
CHICAGO-MIDWAY CLOUDY    42  40  92 NE6       29.65R FOG
MOLINE         CLOUDY    36  34  92 W3        29.67R FOG
ROCKFORD       CLOUDY    37  35  92 NE5       29.68R FOG     WCI  33
PEORIA         CLOUDY    40  40 100 NE6       29.65R FOG
$$

NOTE: "FAIR" INDICATES FEW OR NO CLOUDS BELOW 12,000 FEET WITH NO
SIGNIFICANT WEATHER AND/OR OBSTRUCTIONS TO VISIBILITY. WIND
SPEEDS ARE IN MILES-PER-HOUR.




USA.gov is the U.S. government's official web portal to all federal, state and local government web resources and services.